Dewpoint
-2 -2 -4 -7 -8 -8 -9 -8 -7 -4 -3 -2 -1 -1 -1 -1 -1 -0 -0 -0 -1 -1 -1 -2 -2 -2 -2 -2 -2 -1 -0 -0 0 -0 -2 -2 -1 -2 -2 -3 -2 -1 -1 -1 -2 -1 -1 -0 -3 -3 -6 -9 -5 -5
-7 -8 -8 -7 -7 -7 -8 -8 -9 -7 -5 -2 -1 -1 -1 -1 -1 -1 -0 0 -0 -0 -1 -1 -2 -2 -2 -2 -1 -1 -3 -1 -1 -2 -4 -3 -2 -4 -4 -2 -5 -2 -5 -5 -4 -4 -3 -4 -5 -9 -9 -6 -5 -5
-5 -5 -5 -4 -4 -4 -6 -9 -9 -8 -7 -4 -2 -2 -1 -1 -1 -2 -1 -1 -0 -1 -1 -2 -2 -2 -2 -2 -1 -2 -1 -2 -2 -2 -4 -5 -4 -6 -5 -5 -5 -6 -4 -3 -6 -8 -7 -10 -13 -14 -12 -10 -5 -4
-8 -6 -5 -4 -5 -4 -4 -4 -5 -9 -7 -6 -3 -3 -2 -1 -1 -1 -1 -2 -2 -2 -3 -3 -4 -3 -3 -3 -2 -2 -2 -2 -1 -1 -2 -5 -4 -6 -6 -7 -6 -8 -4 -5 -5 -8 -12 -15 -14 -11 -8 -6 -6 -6
-18 -15 -8 -7 -6 -4 -4 -4 -3 -4 -6 -5 -4 -4 -3 -2 -2 -1 -2 -2 -2 -3 -4 -4 -4 -4 -5 -5 -4 -2 -1 -1 -1 -2 -3 -5 -5 -4 -6 -6 -6 -7 -7 -6 -7 -11 -12 -12 -9 -8 -7 -7 -7 -8
-16 -18 -21 -7 -5 -5 -4 -3 -4 -4 -3 -4 -4 -3 -2 -1 -2 -2 -2 -2 -2 -2 -2 -7 -5 -5 -6 -5 -4 -3 -2 -2 -1 -2 -3 -3 -4 -5 -6 -8 -8 -9 -11 -11 -11 -12 -10 -9 -8 -6 -7 -9 -9 -10
-22 -22 -24 -24 -15 -4 -6 -4 -3 -4 -4 -3 -3 -3 -2 -2 -2 -3 -4 -4 -2 -2 -3 -6 -6 -5 -5 -4 -4 -3 -2 -3 -3 -3 -4 -4 -4 -4 -7 -8 -10 -10 -10 -9 -9 -9 -8 -8 -8 -10 -10 -11 -11 -11
-24 -24 -26 -26 -23 -12 -4 -6 -5 -5 -5 -3 -2 -2 -2 -2 -2 -3 -4 -3 -2 -3 -3 -10 -8 -8 -5 -5 -4 -4 -4 -4 -4 -4 -5 -5 -6 -6 -6 -7 -8 -9 -9 -9 -9 -9 -9 -10 -10 -11 -11 -11 -11 -11
-25 -24 -25 -26 -23 -18 -4 -3 -6 -6 -5 -4 -3 -4 -4 -5 -6 -4 -4 -4 -4 -4 -4 -8 -9 -9 -5 -6 -6 -5 -5 -5 -6 -6 -6 -6 -6 -6 -8 -9 -9 -9 -10 -10 -10 -11 -11 -12 -12 -12 -12 -11 -11 -10
-22 -24 -25 -26 -24 -6 -7 -6 -4 -6 -4 -5 -5 -6 -5 -5 -4 -5 -3 -4 -4 -4 -4 -8 -8 -10 -6 -6 -6 -7 -6 -7 -11 -8 -7 -5 -7 -10 -11 -11 -11 -11 -11 -11 -12 -12 -12 -12 -12 -12 -12 -12 -12 -11
-15 -23 -24 -25 -26 -4 -3 -4 -5 -5 -4 -4 -5 -7 -5 -5 -4 -6 -6 -6 -6 -7 -6 -6 -8 -10 -7 -8 -7 -7 -10 -10 -10 -9 -8 -8 -7 -14 -12 -12 -12 -12 -12 -12 -12 -12 -13 -13 -12 -12 -12 -13 -13 -13
-21 -24 -24 -25 -26 -6 -3 -3 -4 -4 -4 -5 -6 -7 -5 -5 -6 -8 -8 -9 -9 -7 -7 -7 -7 -7 -7 -7 -8 -7 -8 -8 -8 -9 -9 -10 -15 -13 -12 -12 -12 -12 -12 -12 -12 -12 -13 -13 -14 -14 -14 -14 -14 -14
-22 -23 -23 -23 -24 -22 -4 -3 -3 -4 -4 -4 -5 -5 -6 -7 -10 -11 -12 -12 -11 -9 -8 -8 -10 -7 -7 -6 -6 -8 -8 -8 -9 -10 -9 -15 -13 -12 -12 -12 -12 -13 -14 -15 -15 -16 -17 -17 -17 -17 -17 -17 -17 -17
-22 -23 -22 -22 -23 -24 -23 -7 -4 -4 -4 -4 -5 -7 -9 -11 -12 -12 -13 -13 -10 -9 -9 -8 -7 -7 -7 -7 -8 -6 -7 -8 -8 -11 -13 -16 -13 -13 -13 -13 -13 -13 -13 -14 -16 -16 -17 -17 -17 -17 -17 -17 -17 -18
-22 -23 -21 -22 -23 -23 -23 -23 -15 -5 -5 -5 -6 -8 -11 -11 -11 -11 -11 -11 -11 -10 -9 -9 -9 -8 -10 -9 -9 -8 -8 -10 -12 -13 -14 -13 -13 -13 -13 -14 -15 -16 -16 -17 -17 -17 -17 -17 -17 -17 -17 -17 -17 -17
-19 -21 -20 -21 -22 -22 -22 -22 -22 -12 -5 -7 -10 -11 -11 -12 -12 -11 -11 -12 -11 -10 -10 -10 -11 -10 -10 -10 -10 -10 -11 -12 -13 -13 -13 -14 -15 -16 -17 -17 -17 -17 -17 -17 -17 -16 -16 -17 -16 -16 -17 -17 -17 -17
-13 -19 -20 -20 -21 -21 -21 -21 -20 -12 -8 -11 -13 -12 -12 -12 -12 -13 -12 -12 -12 -11 -11 -12 -11 -11 -15 -13 -13 -13 -14 -13 -14 -15 -17 -17 -17 -17 -17 -17 -17 -17 -17 -16 -16 -16 -16 -16 -15 -15 -16 -16 -16 -17
-12 -17 -20 -19 -20 -20 -19 -20 -20 -17 -14 -14 -14 -13 -13 -13 -13 -13 -13 -13 -12 -12 -12 -15 -14 -16 -16 -15 -15 -16 -15 -16 -17 -17 -17 -17 -17 -17 -17 -16 -16 -16 -16 -16 -16 -15 -15 -15 -16 -16 -16 -16 -16 -17
-13 -18 -19 -18 -19 -19 -19 -17 -17 -15 -14 -14 -14 -14 -14 -14 -14 -14 -13 -13 -13 -13 -13 -14 -19 -19 -17 -16 -16 -16 -17 -16 -16 -17 -17 -17 -17 -17 -16 -16 -16 -16 -16 -16 -16 -15 -15 -16 -16 -16 -16 -16 -16 -16
-18 -18 -18 -18 -19 -18 -17 -16 -15 -15 -14 -14 -14 -14 -14 -14 -15 -15 -15 -14 -15 -16 -17 -20 -19 -17 -16 -17 -17 -17 -17 -16 -16 -16 -17 -17 -17 -16 -16 -16 -16 -16 -16 -16 -16 -15 -15 -16 -16 -16 -17 -16 -16 -16
-18 -18 -19 -18 -17 -17 -16 -14 -14 -14 -14 -14 -15 -14 -15 -15 -16 -16 -16 -16 -17 -17 -17 -16 -16 -17 -17 -17 -16 -16 -16 -16 -16 -16 -16 -16 -17 -16 -16 -16 -16 -16 -16 -16 -16 -16 -16 -16 -16 -17 -17 -17 -17 -17
-19 -18 -18 -18 -17 -16 -15 -15 -14 -14 -15 -15 -15 -15 -15 -16 -16 -16 -17 -17 -17 -16 -17 -17 -17 -17 -17 -17 -16 -16 -16 -16 -16 -16 -16 -16 -16 -16 -16 -16 -16 -16 -16 -16 -16 -15 -16 -16 -16 -16 -16 -16 -16 -16
-18 -18 -18 -18 -18 -18 -18 -16 -16 -16 -20 -16 -16 -18 -19 -17 -17 -17 -17 -17 -16 -17 -17 -17 -17 -17 -17 -17 -16 -16 -16 -16 -16 -16 -16 -16 -17 -17 -16 -16 -16 -16 -16 -16 -15 -16 -16 -17 -16 -16 -16 -17 -16 -17
-19 -18 -18 -17 -17 -18 -16 -16 -17 -17 -17 -22 -24 -20 -22 -18 -17 -17 -21 -16 -16 -17 -17 -17 -17 -17 -17 -17 -17 -16 -16 -16 -16 -17 -16 -16 -16 -16 -16 -16 -16 -16 -15 -15 -16 -16 -17 -16 -16 -16 -16 -17 -17 -16
-19 -18 -18 -18 -17 -18 -23 -23 -23 -22 -21 -27 -23 -21 -23 -20 -23 -23 -21 -16 -16 -17 -17 -17 -17 -17 -17 -17 -17 -17 -16 -16 -16 -16 -17 -16 -16 -16 -17 -17 -17 -17 -15 -16 -16 -16 -16 -16 -17 -16 -16 -16 -16 -16
-20 -17 -19 -18 -19 -20 -22 -20 -23 -23 -24 -22 -24 -21 -21 -24 -21 -20 -22 -16 -17 -17 -17 -17 -17 -17 -17 -16 -16 -17 -16 -16 -16 -16 -17 -16 -16 -16 -16 -16 -16 -17 -16 -16 -16 -16 -16 -17 -16 -16 -16 -16 -15 -15
-21 -21 -18 -18 -18 -18 -19 -19 -19 -21 -23 -21 -24 -24 -24 -20 -21 -21 -17 -17 -17 -17 -17 -17 -17 -17 -17 -17 -16 -16 -16 -16 -16 -16 -16 -15 -15 -15 -15 -16 -16 -16 -16 -16 -16 -16 -16 -16 -16 -16 -16 -15 -15 -15
-17 -18 -21 -19 -18 -19 -22 -23 -24 -23 -23 -20 -20 -22 -21 -21 -20 -17 -17 -18 -17 -17 -17 -17 -17 -17 -17 -16 -16 -16 -16 -16 -17 -17 -18 -17 -16 -15 -15 -15 -15 -15 -16 -16 -16 -16 -16 -16 -16 -16 -15 -15 -15 -14
-17 -18 -18 -19 -19 -19 -19 -21 -20 -19 -19 -19 -21 -21 -19 -18 -18 -18 -18 -18 -18 -18 -17 -17 -18 -17 -17 -17 -16 -16 -16 -16 -17 -17 -18 -18 -17 -17 -16 -16 -16 -15 -15 -15 -15 -15 -15 -16 -15 -15 -15 -15 -14 -14
-18 -18 -18 -20 -23 -21 -19 -19 -19 -19 -19 -19 -19 -19 -18 -18 -18 -18 -19 -19 -18 -18 -18 -18 -18 -18 -17 -17 -18 -18 -16 -16 -17 -17 -18 -17 -16 -16 -15 -16 -15 -15 -15 -15 -15 -15 -15 -15 -14 -14 -14 -14 -14 -14
-18 -18 -18 -19 -19 -19 -19 -19 -19 -20 -20 -20 -20 -20 -19 -19 -19 -19 -19 -19 -19 -18 -18 -18 -18 -18 -18 -18 -18 -18 -18 -17 -17 -16 -16 -16 -17 -16 -15 -15 -16 -15 -15 -15 -15 -15 -15 -14 -14 -14 -14 -14 -14 -14
-18 -18 -19 -20 -19 -19 -20 -20 -20 -20 -20 -20 -20 -20 -20 -19 -19 -19 -19 -19 -19 -19 -18 -18 -18 -18 -18 -18 -17 -18 -18 -17 -16 -16 -16 -17 -17 -15 -16 -16 -16 -15 -15 -15 -15 -15 -15 -14 -14 -14 -14 -14 -14 -13
-19 -19 -19 -19 -19 -19 -20 -20 -20 -20 -20 -20 -20 -20 -20 -20 -19 -18 -19 -19 -19 -19 -19 -18 -18 -18 -18 -18 -18 -17 -17 -17 -16 -16 -16 -16 -16 -16 -15 -16 -16 -16 -15 -15 -15 -15 -15 -14 -14 -14 -14 -14 -14 -14
Wind_Speed
18 15 9 6 6 6 5 5 4 5 6 7 5 3 8 14 14 16 17 17 13 6 5 8 7 9 7 7 4 7 3 2 3 3 2 3 3 3 0 3 3 5 4 3 2 2 6 5 2 4 4 16 15 14
17 13 11 10 9 7 6 5 5 4 5 6 7 5 11 13 18 14 11 14 16 8 6 12 12 10 8 5 6 13 2 5 7 2 1 2 2 0 3 2 1 3 4 3 6 3 5 6 4 7 9 9 11 13
18 17 15 13 12 10 8 6 5 5 6 6 7 7 4 16 16 17 15 14 18 12 6 9 11 12 15 13 14 8 6 7 6 5 6 2 3 3 3 4 1 4 4 2 3 1 5 11 12 8 18 19 15 18
17 14 12 12 12 11 10 8 5 4 4 6 7 7 5 2 8 15 14 17 15 5 3 1 6 9 14 18 21 21 16 10 8 11 4 3 2 7 3 1 3 5 5 3 4 6 7 14 7 17 16 15 20 22
21 19 14 11 9 11 10 11 8 3 2 4 7 9 7 7 6 7 13 11 16 5 4 2 4 7 9 9 11 16 21 16 11 6 3 3 4 3 1 1 4 9 5 4 5 7 5 15 8 17 19 16 14 17
21 19 19 13 11 7 9 11 6 4 2 2 5 7 9 10 11 11 4 7 10 10 2 1 3 4 7 7 8 10 14 17 12 5 3 5 6 5 3 3 4 10 13 13 6 11 16 19 16 9 12 16 16 17
20 19 18 16 12 9 6 6 6 6 8 3 4 8 12 12 12 4 3 5 13 13 2 2 2 1 2 4 5 8 11 7 6 6 5 5 5 8 2 4 6 7 7 10 14 14 9 4 5 14 13 14 14 12
20 19 19 17 12 8 9 4 3 4 6 6 10 12 16 13 11 5 5 9 12 5 4 2 3 0 4 3 3 7 6 6 5 4 4 3 2 2 3 11 4 4 5 5 5 6 9 11 10 12 12 12 11 12
20 19 20 19 16 8 2 5 1 1 3 8 9 10 8 5 3 3 6 7 8 4 4 3 3 3 6 3 3 3 3 1 2 2 4 7 3 5 3 3 2 4 2 4 7 7 5 7 8 8 8 9 11 13
20 19 20 21 17 11 4 5 4 6 6 8 8 2 3 6 9 7 4 3 6 3 5 3 4 1 5 3 2 3 1 2 2 4 8 3 4 3 4 3 4 5 5 6 6 3 6 6 8 9 9 10 12 13
21 20 19 21 20 16 15 10 12 13 11 9 3 2 9 8 7 2 1 1 1 2 3 1 4 2 6 3 4 6 2 1 1 4 4 2 3 3 5 4 4 4 4 5 5 5 7 9 12 13 13 12 13 14
21 20 18 20 19 14 14 11 13 16 10 9 4 8 8 3 2 2 1 2 2 3 0 2 2 3 4 4 3 4 3 2 5 3 2 2 2 5 4 4 4 4 4 5 7 9 11 12 14 15 17 18 18 18
21 19 17 17 17 13 8 10 10 16 13 12 4 4 3 2 3 5 4 3 1 1 0 2 1 2 3 4 2 2 3 5 6 1 3 2 3 3 4 5 5 7 9 11 12 13 15 16 16 17 18 18 20 22
22 19 15 16 16 13 8 3 2 13 6 4 5 3 4 2 4 4 3 3 3 3 3 1 1 2 3 2 2 2 1 2 1 1 2 2 4 5 7 10 13 14 14 16 17 18 18 18 19 20 21 22 24 26
22 19 12 16 15 14 11 7 5 7 3 3 3 4 3 3 3 5 8 6 3 3 2 1 1 1 1 1 2 1 1 2 1 2 2 2 7 10 14 16 19 20 20 20 20 21 22 23 24 26 24 25 25 26
24 18 16 18 15 14 12 8 4 4 3 1 2 3 4 3 2 4 5 4 2 2 2 1 1 2 2 0 2 1 1 3 2 1 3 11 14 16 19 21 22 23 22 22 22 23 24 24 25 27 28 27 26 27
27 22 20 16 15 14 12 6 2 3 1 2 2 4 4 4 4 4 3 3 1 3 2 2 3 5 1 2 1 0 3 1 2 11 16 17 19 20 20 21 21 22 24 24 24 23 24 24 25 27 29 27 26 27
27 25 20 14 14 13 7 2 2 1 4 4 2 3 4 4 6 4 3 3 3 3 3 3 4 3 3 3 2 2 1 10 14 16 19 19 19 18 18 20 21 22 24 24 23 23 24 25 27 27 27 28 30 30
27 23 18 14 12 8 3 2 1 3 3 4 5 5 4 6 6 5 5 5 5 5 6 3 4 2 2 2 2 4 12 14 20 23 24 21 18 20 21 21 23 23 23 23 23 23 25 26 26 26 28 29 29 29
20 16 11 12 9 3 2 2 2 3 3 3 4 5 4 4 5 5 4 3 2 2 3 2 2 2 0 4 9 13 15 15 18 23 27 25 25 24 24 24 24 23 23 23 23 24 27 27 28 30 30 27 26 29
11 10 14 9 3 2 1 2 3 4 5 2 6 4 2 4 2 2 1 2 1 2 2 2 2 4 7 8 10 12 13 13 15 17 24 31 28 28 28 24 24 24 24 24 26 27 25 29 32 30 29 26 25 28
15 13 7 3 1 1 3 5 4 3 2 4 4 2 2 2 2 2 0 2 3 3 2 3 5 8 9 8 8 10 12 13 16 19 19 21 25 26 26 24 23 24 24 26 25 27 32 31 28 26 28 30 26 28
10 5 3 2 0 3 2 2 1 2 3 1 2 2 2 1 1 1 1 2 3 4 5 7 8 10 10 7 7 7 10 15 17 18 19 19 21 23 23 23 22 25 28 25 26 29 28 26 26 26 26 30 31 32
6 3 4 4 7 1 2 3 3 2 2 3 3 1 2 1 2 1 1 2 6 3 6 8 10 10 7 6 8 9 12 16 18 18 18 22 25 24 22 23 22 24 25 28 29 29 30 31 28 31 31 31 30 29
4 8 5 6 7 4 5 5 6 4 1 1 2 2 2 2 2 1 2 3 7 1 7 9 9 11 11 12 12 11 13 17 20 22 19 20 22 23 23 22 23 24 27 30 32 32 31 33 32 29 28 27 26 26
5 6 4 4 4 3 0 2 3 1 1 2 2 1 1 2 2 3 2 5 3 5 9 13 15 14 11 13 15 16 17 18 20 21 21 19 17 21 24 27 29 30 30 30 31 33 33 28 28 28 27 27 26 25
3 2 3 4 4 3 1 1 0 1 1 1 1 1 2 1 3 2 5 4 2 6 9 12 14 13 15 17 15 14 16 17 18 21 20 16 15 17 20 26 29 33 34 33 30 24 25 27 26 26 28 27 25 24
3 3 1 11 2 1 2 1 1 1 2 0 1 0 4 5 3 3 3 2 2 5 8 12 13 14 14 16 15 15 16 16 18 18 17 14 17 22 25 26 26 31 33 28 24 22 22 22 23 26 24 23 22 18
1 5 8 2 2 2 2 2 1 0 1 1 1 2 2 1 2 3 3 2 3 5 8 10 11 13 13 13 11 13 15 19 23 26 27 28 29 29 27 27 32 35 33 27 22 19 18 18 19 19 19 18 17 15
2 6 3 2 0 1 0 1 1 3 4 4 4 4 4 3 3 5 6 5 4 6 8 12 15 16 17 18 17 14 14 17 19 22 26 26 27 29 30 30 31 32 29 25 22 20 18 17 15 15 16 16 15 16
4 3 2 2 3 1 3 7 8 6 4 3 4 6 6 5 4 4 6 6 5 6 9 12 10 13 14 16 19 22 23 21 20 19 19 19 21 29 28 26 26 28 26 23 21 20 19 18 18 19 19 19 19 19
2 1 2 2 1 4 5 5 3 1 1 1 1 2 2 2 2 2 3 3 5 8 11 13 13 13 12 13 14 17 20 22 22 20 21 21 23 26 26 19 22 23 21 21 19 19 18 19 20 20 21 21 22 22
2 2 2 3 3 2 4 7 3 2 0 1 1 3 3 2 1 3 5 5 7 12 15 14 14 12 10 13 14 17 19 20 19 18 16 16 18 20 19 13 18 20 17 17 16 16 16 17 17 18 18 19 19 19
Wind_Direction
60 60 47 27 13 1 346 326 302 272 267 258 250 231 213 203 208 211 220 213 197 153 172 190 161 141 147 164 146 157 128 183 160 180 161 215 204 220 133 242 188 181 169 210 149 220 250 187 227 130 226 295 302 325
32 29 26 21 11 2 354 335 312 283 248 238 231 246 215 211 202 205 197 193 212 202 182 209 208 189 180 189 179 181 203 158 169 117 154 121 214 228 176 246 0 248 197 197 187 205 122 187 191 318 326 291 303 308
35 31 28 25 16 4 348 323 298 277 255 238 222 230 233 199 180 199 195 188 204 206 184 212 226 232 234 223 212 203 215 200 186 181 158 164 203 131 181 237 228 253 187 198 61 237 170 322 321 324 318 310 302 311
18 18 21 22 16 15 11 358 330 280 252 229 222 224 218 171 193 199 188 198 205 135 145 200 221 228 230 233 229 228 236 208 218 203 165 160 193 196 208 178 191 210 151 172 278 297 318 286 272 310 304 296 302 304
18 15 12 4 13 19 14 19 20 26 224 211 210 208 202 200 181 187 199 201 191 182 169 179 185 231 248 237 231 226 223 224 199 178 162 204 180 145 59 45 252 181 179 165 222 221 241 279 300 300 299 303 311 317
12 12 10 15 9 9 27 24 46 18 11 140 169 175 171 180 164 138 139 177 180 195 201 348 222 234 234 229 216 212 215 222 211 179 179 185 183 187 159 211 257 192 206 225 243 280 281 294 302 289 309 315 319 325
7 7 9 6 8 14 6 30 45 43 41 114 165 169 165 164 165 113 105 167 186 200 189 335 336 24 195 149 168 183 199 200 191 173 182 167 191 181 143 223 162 176 225 255 264 274 287 281 284 304 313 318 323 328
7 8 7 7 4 9 23 1 20 44 54 75 147 151 154 164 165 138 103 119 174 168 179 101 271 251 158 165 167 179 181 177 171 160 152 183 183 195 243 243 269 280 291 252 254 283 279 290 301 311 317 321 329 337
5 5 6 6 1 354 121 21 281 175 91 121 115 105 98 90 80 98 135 136 167 194 165 149 149 239 165 138 137 160 165 114 181 186 200 158 167 225 260 22 337 321 317 294 300 300 292 305 320 328 332 331 341 347
2 2 360 1 3 359 323 251 203 191 167 153 151 98 99 118 123 126 124 174 200 210 211 189 184 193 153 159 158 137 166 188 175 229 154 216 231 219 329 313 315 322 323 324 330 290 317 332 341 345 346 343 338 339
358 358 357 359 2 357 344 282 204 185 177 157 162 94 127 149 174 111 90 118 299 335 185 169 197 158 190 152 183 201 183 189 154 249 163 223 252 12 38 45 45 38 30 21 13 356 340 330 327 325 324 324 323 323
356 356 356 356 4 14 37 57 170 180 171 179 156 120 144 178 94 112 253 333 183 237 133 145 170 211 179 187 143 183 180 161 246 143 116 252 293 32 40 41 38 20 359 340 331 323 317 311 309 306 308 310 310 309
353 353 353 355 359 6 29 108 191 197 189 176 166 152 160 188 50 144 217 290 273 181 54 145 181 177 176 195 208 135 185 222 127 124 220 234 335 8 10 356 341 334 326 321 316 311 307 305 304 302 302 305 306 305
350 348 347 350 351 354 353 302 312 181 166 179 167 210 173 252 237 184 175 171 137 146 142 118 184 172 173 173 216 242 195 145 211 320 240 256 334 349 339 331 321 317 316 313 312 310 308 306 303 302 302 303 302 303
349 344 341 343 348 346 342 325 259 238 274 232 202 220 196 125 89 125 126 127 117 145 134 138 290 211 303 251 195 308 219 261 137 210 226 343 332 318 315 317 315 312 310 307 306 305 304 305 305 303 303 301 303 302
351 348 338 335 336 340 337 327 288 222 246 219 90 90 126 95 106 143 146 145 113 147 145 129 87 70 281 343 14 185 87 222 223 129 319 320 317 314 312 310 307 306 305 304 305 304 303 303 304 302 301 303 304 300
342 339 334 331 331 331 329 321 252 218 143 76 48 98 107 76 134 148 140 159 175 152 155 113 143 215 10 42 309 250 185 129 3 310 313 315 316 316 312 306 307 307 305 304 304 304 304 306 305 302 303 308 306 301
336 332 328 329 330 331 320 265 232 123 77 79 99 93 94 110 120 124 124 135 139 133 142 176 124 79 167 172 261 232 68 309 310 311 311 318 322 319 315 312 310 307 305 303 303 304 306 309 308 306 305 306 303 301
328 323 321 326 333 329 299 356 18 95 90 93 110 110 102 109 103 116 113 104 104 115 126 116 78 167 220 209 223 284 313 317 316 315 316 324 327 327 323 320 315 312 307 303 303 304 306 310 308 310 311 308 302 301
321 318 321 323 323 297 277 33 51 84 103 126 130 125 116 123 121 101 113 130 114 108 67 72 177 151 268 297 307 306 307 312 309 314 319 327 330 327 326 326 323 321 315 311 308 311 313 312 314 317 313 308 304 302
332 329 320 322 302 257 66 84 68 78 116 118 135 133 108 136 138 151 116 123 108 59 87 101 114 311 307 312 305 302 311 307 310 307 312 316 324 324 322 323 323 321 319 319 318 318 315 313 316 315 312 309 310 306
327 324 321 320 295 80 76 50 84 99 107 125 132 123 122 114 108 106 101 94 83 83 85 356 333 330 331 329 319 314 313 310 312 312 313 310 313 320 323 325 324 322 321 323 322 319 317 318 317 314 311 309 307 306
335 336 335 346 206 36 61 56 76 56 89 98 123 66 33 61 51 142 84 112 130 119 34 359 345 336 333 331 327 321 318 318 320 323 326 324 323 327 327 329 329 324 323 328 326 321 320 323 318 313 312 310 308 308
-0 10 17 34 19 53 34 49 51 70 90 37 54 9 323 358 347 115 188 149 155 121 359 350 342 343 347 347 350 347 336 331 331 334 343 334 330 332 332 331 332 332 332 330 329 328 328 325 316 314 314 312 311 308
7 10 16 6 17 15 25 1 352 42 54 331 57 340 316 341 58 49 210 159 163 357 349 353 356 356 351 346 349 352 350 339 335 334 350 336 332 331 334 334 335 338 341 335 332 328 322 318 317 317 317 317 316 315
65 14 35 3 341 42 0 4 356 303 113 0 241 318 356 82 64 248 230 146 142 10 3 2 357 354 2 351 342 346 348 341 335 334 345 342 337 335 335 337 338 340 346 338 330 320 317 321 324 327 328 327 324 319
54 325 20 13 320 304 321 238 290 119 72 221 260 39 63 69 257 254 147 133 56 17 7 3 357 349 346 348 344 340 341 339 337 336 342 348 353 354 347 343 339 339 342 329 321 323 324 325 329 332 331 333 334 333
79 25 66 324 287 271 184 13 129 215 250 150 176 311 170 190 231 152 167 162 15 5 2 355 353 350 345 344 342 338 339 341 342 343 349 4 11 9 359 351 344 344 343 339 337 330 327 327 330 326 327 331 336 341
0 337 329 305 285 247 237 206 245 137 314 249 179 264 276 248 224 200 208 257 314 327 337 329 339 347 345 349 350 351 350 351 352 352 353 354 357 5 1 354 351 349 346 345 349 346 342 337 331 332 333 335 341 346
309 338 306 299 254 266 229 263 283 291 287 268 276 285 283 274 268 248 248 265 296 328 343 347 341 339 343 346 350 3 6 2 359 354 344 344 348 354 357 354 346 347 350 351 354 359 3 4 5 9 12 14 16 17
313 316 298 265 265 265 297 307 301 297 280 273 265 261 270 295 293 276 259 269 280 314 334 335 338 340 339 347 351 353 355 0 357 352 345 342 351 359 354 337 344 352 358 1 5 9 12 18 25 28 31 33 34 34
306 285 333 304 312 314 330 344 324 302 294 293 293 323 318 308 309 330 342 322 305 315 330 336 335 343 344 348 348 349 346 345 347 345 348 352 354 352 335 342 350 355 3 11 19 24 28 35 40 41 43 44 44 45
316 339 308 293 300 332 341 340 12 357 302 354 7 0 2 346 340 6 348 336 339 343 343 344 342 340 336 342 344 345 347 348 348 346 344 350 354 346 344 348 351 352 0 7 15 22 28 32 37 41 43 43 46 49
Height
1429 1429 1431 1431 1430 1430 1429 1429 1430 1430 1431 1432 1433 1436 1437 1441 1444 1447 1450 1453 1459 1462 1465 1467 1470 1472 1475 1477 1481 1484 1487 1488 1489 1491 1496 1495 1497 1493 1496 1491 1488 1489 1491 1495 1496 1498 1492 1483 1485 1490 1487 1483 1482 1481
1437 1436 1435 1433 1432 1431 1430 1430 1430 1430 1430 1431 1433 1435 1436 1439 1442 1445 1448 1451 1456 1461 1464 1466 1468 1471 1472 1475 1478 1481 1480 1480 1483 1489 1495 1493 1495 1500 1496 1494 1487 1490 1483 1484 1483 1483 1480 1480 1481 1482 1482 1482 1480 1478
1443 1441 1438 1436 1434 1432 1430 1429 1429 1429 1430 1431 1433 1434 1435 1437 1439 1443 1447 1450 1454 1459 1462 1463 1465 1468 1469 1472 1476 1478 1478 1479 1480 1481 1485 1490 1495 1493 1497 1495 1491 1482 1479 1482 1481 1479 1479 1477 1480 1479 1479 1478 1476 1473
1446 1443 1440 1438 1436 1434 1432 1430 1428 1428 1429 1430 1431 1433 1435 1436 1439 1442 1445 1448 1452 1457 1459 1461 1461 1462 1465 1467 1469 1471 1473 1475 1478 1481 1482 1485 1489 1484 1488 1483 1486 1479 1478 1478 1479 1476 1475 1475 1476 1476 1473 1473 1472 1468
1449 1445 1442 1439 1437 1436 1434 1432 1430 1429 1428 1429 1431 1433 1436 1438 1440 1442 1444 1446 1450 1457 1458 1459 1459 1460 1461 1463 1464 1466 1470 1472 1475 1476 1477 1482 1479 1482 1484 1483 1481 1472 1472 1476 1476 1472 1474 1471 1471 1470 1469 1467 1466 1462
1451 1447 1444 1440 1438 1437 1435 1434 1432 1431 1430 1430 1431 1433 1435 1436 1439 1442 1445 1448 1450 1453 1458 1461 1459 1457 1458 1459 1461 1463 1466 1469 1470 1470 1472 1472 1474 1478 1481 1485 1463 1463 1464 1467 1469 1468 1468 1466 1465 1463 1463 1464 1461 1457
1452 1448 1445 1442 1439 1438 1436 1435 1434 1433 1432 1432 1433 1434 1436 1439 1441 1444 1446 1447 1449 1453 1456 1458 1457 1457 1456 1458 1460 1462 1464 1466 1468 1469 1470 1471 1472 1473 1476 1478 1461 1462 1464 1465 1464 1464 1462 1462 1462 1461 1460 1459 1456 1454
1453 1450 1446 1443 1440 1438 1437 1437 1436 1436 1435 1434 1435 1434 1437 1440 1443 1445 1446 1448 1450 1453 1455 1459 1457 1457 1457 1458 1460 1462 1463 1465 1466 1467 1469 1470 1471 1470 1469 1456 1457 1459 1460 1460 1460 1460 1459 1459 1458 1457 1456 1454 1452 1449
1455 1451 1447 1444 1440 1438 1437 1437 1437 1437 1437 1438 1438 1439 1441 1443 1444 1446 1447 1449 1452 1456 1454 1456 1461 1462 1458 1458 1460 1462 1462 1464 1465 1464 1466 1468 1468 1464 1455 1456 1457 1458 1458 1457 1457 1457 1457 1456 1455 1454 1452 1451 1449 1446
1456 1452 1448 1444 1441 1438 1436 1435 1436 1437 1438 1439 1441 1442 1443 1446 1447 1448 1449 1450 1451 1451 1452 1452 1454 1457 1458 1459 1460 1462 1462 1464 1472 1461 1462 1461 1457 1457 1457 1457 1457 1456 1456 1456 1455 1455 1455 1454 1453 1452 1451 1450 1448 1446
1457 1453 1449 1445 1441 1437 1432 1429 1432 1435 1438 1440 1441 1443 1445 1447 1448 1449 1450 1452 1452 1452 1450 1451 1452 1453 1455 1457 1457 1459 1461 1463 1469 1458 1459 1459 1456 1457 1457 1456 1456 1456 1455 1456 1456 1455 1454 1453 1452 1450 1449 1448 1446 1443
1458 1454 1450 1446 1442 1438 1434 1430 1432 1435 1438 1441 1442 1443 1446 1447 1449 1451 1452 1453 1451 1451 1450 1450 1451 1452 1453 1453 1454 1456 1457 1459 1460 1455 1459 1460 1461 1459 1458 1457 1457 1457 1456 1456 1455 1454 1452 1451 1449 1447 1446 1444 1442 1440
1458 1454 1451 1447 1444 1441 1439 1437 1437 1437 1438 1440 1442 1443 1444 1447 1453 1455 1462 1456 1455 1448 1449 1449 1450 1451 1451 1452 1452 1454 1456 1456 1452 1455 1454 1465 1460 1459 1459 1458 1457 1456 1455 1453 1452 1450 1449 1447 1446 1444 1441 1440 1437 1435
1458 1454 1451 1448 1445 1443 1441 1440 1439 1438 1438 1438 1439 1443 1443 1449 1445 1443 1444 1445 1446 1447 1448 1448 1448 1449 1449 1450 1449 1448 1447 1449 1451 1461 1463 1462 1460 1459 1458 1457 1455 1453 1452 1450 1448 1446 1444 1442 1440 1438 1437 1435 1432 1429
1457 1454 1451 1448 1445 1442 1440 1438 1438 1439 1438 1437 1437 1438 1441 1440 1440 1441 1442 1444 1446 1446 1447 1448 1448 1449 1449 1450 1448 1448 1448 1453 1459 1462 1461 1460 1459 1458 1456 1454 1452 1450 1447 1445 1443 1440 1438 1436 1433 1430 1429 1427 1425 1422
1456 1453 1450 1446 1444 1441 1439 1437 1436 1437 1436 1436 1437 1439 1439 1440 1443 1443 1444 1444 1445 1446 1447 1448 1449 1451 1451 1451 1451 1451 1456 1459 1461 1458 1459 1458 1456 1454 1452 1449 1447 1444 1441 1439 1437 1434 1431 1429 1426 1423 1420 1419 1417 1414
1455 1452 1448 1445 1442 1439 1437 1436 1435 1435 1434 1436 1438 1439 1439 1440 1441 1443 1444 1445 1445 1446 1447 1448 1451 1449 1453 1457 1457 1456 1459 1457 1457 1457 1456 1454 1452 1449 1447 1444 1441 1438 1435 1432 1430 1427 1425 1422 1419 1416 1412 1410 1408 1405
1453 1449 1446 1443 1440 1437 1435 1434 1434 1434 1436 1439 1439 1440 1440 1441 1442 1443 1444 1445 1446 1446 1447 1450 1450 1457 1461 1462 1460 1457 1456 1455 1455 1453 1451 1449 1447 1444 1441 1438 1435 1432 1429 1426 1424 1421 1418 1415 1411 1408 1405 1402 1398 1396
1450 1446 1443 1441 1439 1437 1435 1435 1435 1435 1439 1440 1440 1441 1442 1443 1444 1444 1445 1445 1446 1446 1448 1449 1454 1460 1456 1454 1454 1454 1454 1453 1450 1447 1444 1444 1442 1439 1436 1433 1429 1426 1423 1419 1417 1414 1411 1408 1404 1401 1398 1394 1389 1386
1446 1443 1441 1439 1438 1436 1435 1435 1435 1435 1438 1440 1441 1442 1443 1444 1445 1445 1446 1446 1447 1448 1448 1452 1453 1453 1454 1454 1453 1452 1450 1449 1447 1442 1438 1437 1436 1433 1430 1427 1423 1420 1416 1413 1410 1407 1403 1399 1397 1393 1389 1385 1382 1378
1442 1441 1439 1437 1436 1436 1436 1436 1437 1439 1440 1441 1442 1443 1444 1445 1445 1446 1447 1447 1448 1449 1451 1452 1452 1453 1452 1451 1450 1448 1447 1445 1443 1442 1437 1431 1429 1427 1424 1422 1418 1414 1410 1407 1403 1399 1397 1393 1389 1385 1380 1377 1375 1371
1442 1439 1438 1436 1436 1436 1437 1439 1440 1440 1442 1442 1443 1444 1445 1445 1446 1447 1448 1448 1449 1451 1452 1452 1451 1450 1449 1448 1447 1445 1443 1442 1440 1437 1435 1432 1426 1422 1419 1416 1412 1408 1405 1402 1398 1394 1389 1385 1381 1377 1373 1370 1367 1364
1440 1439 1438 1437 1437 1438 1442 1441 1441 1441 1442 1444 1444 1445 1446 1446 1447 1448 1448 1448 1450 1451 1451 1451 1450 1448 1447 1445 1444 1443 1440 1438 1436 1433 1430 1426 1423 1419 1415 1411 1408 1404 1399 1396 1393 1388 1383 1379 1375 1371 1367 1363 1359 1355
1440 1439 1439 1439 1440 1443 1442 1442 1442 1443 1444 1445 1448 1449 1448 1448 1448 1448 1450 1448 1450 1450 1451 1449 1448 1446 1445 1444 1442 1440 1438 1435 1432 1429 1426 1421 1417 1413 1411 1407 1404 1400 1396 1391 1386 1381 1376 1371 1368 1364 1359 1355 1351 1347
1443 1447 1447 1446 1446 1445 1447 1446 1446 1445 1450 1452 1451 1450 1449 1449 1451 1452 1450 1448 1449 1450 1449 1447 1446 1444 1442 1440 1439 1437 1435 1432 1428 1424 1423 1419 1414 1410 1407 1404 1400 1396 1391 1384 1379 1374 1370 1366 1361 1357 1353 1349 1344 1340
1451 1452 1451 1451 1451 1450 1452 1452 1453 1452 1451 1451 1451 1450 1449 1450 1453 1452 1447 1447 1448 1448 1447 1445 1443 1442 1441 1439 1436 1434 1432 1429 1425 1422 1419 1416 1412 1408 1403 1398 1393 1389 1386 1381 1374 1369 1364 1360 1355 1351 1346 1342 1338 1334
1455 1455 1454 1454 1453 1452 1451 1451 1450 1451 1453 1451 1451 1450 1452 1454 1455 1448 1447 1448 1448 1447 1446 1445 1443 1441 1439 1437 1435 1433 1430 1427 1424 1420 1416 1413 1410 1406 1402 1397 1391 1386 1379 1376 1371 1365 1360 1355 1350 1346 1341 1337 1333 1328
1454 1455 1456 1454 1451 1451 1451 1451 1451 1452 1450 1449 1450 1453 1453 1450 1449 1447 1447 1448 1447 1447 1446 1444 1443 1440 1438 1435 1433 1430 1428 1425 1422 1418 1415 1412 1408 1403 1399 1395 1390 1384 1378 1371 1366 1361 1356 1352 1347 1343 1339 1334 1330 1326
1454 1454 1454 1452 1451 1450 1450 1450 1450 1450 1450 1449 1450 1448 1446 1445 1445 1445 1446 1446 1446 1446 1445 1444 1442 1440 1438 1436 1432 1429 1426 1422 1417 1412 1408 1404 1400 1398 1395 1391 1385 1379 1373 1368 1363 1359 1354 1350 1346 1341 1337 1333 1329 1325
1454 1453 1452 1452 1451 1450 1450 1450 1449 1449 1448 1448 1448 1447 1446 1445 1444 1445 1445 1445 1445 1444 1443 1441 1439 1437 1434 1432 1429 1428 1425 1421 1418 1414 1408 1404 1401 1397 1392 1387 1383 1378 1372 1366 1361 1357 1353 1349 1345 1341 1337 1333 1329 1325
1453 1452 1452 1451 1449 1449 1448 1448 1447 1446 1445 1445 1445 1445 1445 1444 1443 1443 1443 1443 1443 1443 1442 1440 1438 1436 1433 1430 1427 1423 1420 1419 1416 1413 1410 1406 1402 1396 1392 1389 1384 1378 1372 1367 1362 1358 1354 1351 1346 1343 1339 1336 1332 1329
1452 1452 1452 1450 1449 1449 1447 1446 1446 1445 1445 1445 1444 1444 1444 1444 1443 1443 1443 1443 1443 1442 1440 1438 1435 1433 1431 1429 1427 1424 1421 1417 1413 1410 1406 1402 1400 1397 1392 1387 1383 1379 1374 1370 1366 1362 1358 1354 1350 1347 1344 1341 1338 1334
1452 1452 1451 1450 1449 1448 1448 1447 1446 1445 1445 1445 1444 1444 1444 1444 1443 1444 1443 1442 1442 1440 1438 1435 1433 1431 1429 1427 1425 1423 1420 1416 1412 1409 1406 1402 1399 1396 1391 1387 1383 1380 1376 1372 1369 1365 1362 1359 1356 1353 1350 1347 1344 1341